Location: Mercogliano
(40.9167°N, 14.7333°E)
Time: 07:25:26
(UTC+00:00)

CZ-2C R/B - Pass Details

Date: 23 January 2021
Orbit: 785 x 870 km, 98.2° (Epoch: 08 March)

Event Time Altitude Azimuth Distance (km) Brightness Sun altitude
Exits shadow 18:29:38 33° 8° (N) 1,406 3.7 -26.7°
Maximum altitude 18:32:15 82° 284° (WNW) 880 2.7 -27.2°
Drops below altitude 10° 18:37:51 10° 198° (SSW) 2,508 5.4 -28.3°
Sets 18:40:13 0° 198° (SSW) 3,442 6.1 -28.7°
